Retour au catalogue

STARLINK-34968

ActifCommunicationsSSO
NORAD 65276·PAYLOAD·🇺🇸 United States

Lancé Aug 22, 2025 depuis Vandenberg Space Force Base

Loading…

Prochains Passages (prochaines 24 heures)

TLE

FraisSource: CelesTrak SupGP

Époque: Sep 15, 2026, 03:23 UTC

1 65276C 25184D   26258.14145833  .00005963  00000+0  18511-3 0  2587
2 65276  97.2836 306.2417 0001018  85.8865  28.9164 15.33437605    14

Suivez STARLINK-34968 en temps réel avec AllMySat

Download on the App Store